When you browse on this site, cookies collect data to enhance your experience and personalize the content and advertising you see.
Visit our Privacy Policy to learn more. By continuing to use the site, you agree to this use of cookies and data.
  • Em Portugal
  • Lista de países
  • Para 7 dias
  • Temperatura da água
  • Mapas de satélite
  • Mapa do tempo
  • Widgets de tempo
  • user-avatar
    Iniciar Sessão

    Previsão horária em Ghent

    Hoje, 25 Maio, Sábado

    Tempo Temperatura Precipitação Vento Pressão Humidade
    00:00 +11°C° 0 mm 1 m/s 762 mmHg 80%
    01:00 +9°C° 0 mm 0 m/s 762 mmHg 81%
    02:00 +9°C° 0 mm 0 m/s 762 mmHg 82%
    03:00 +9°C° 0 mm 0 m/s 762 mmHg 83%
    04:00 +10°C° 0 mm 0 m/s 762 mmHg 80%
    05:00 +11°C° 0 mm 0 m/s 762 mmHg 77%
    06:00 +12°C° 0 mm 0 m/s 762 mmHg 74%
    07:00 +12°C° 0.2 mm 0 m/s 762 mmHg 75%
    08:00 +13°C° 0.2 mm 0 m/s 762 mmHg 75%
    09:00 +13°C° 0.2 mm 0 m/s 762 mmHg 76%
    10:00 +15°C° 0 mm 0 m/s 762 mmHg 70%
    11:00 +17°C° 0 mm 0 m/s 762 mmHg 64%
    12:00 +19°C° 0 mm 0 m/s 762 mmHg 58%
    13:00 +21°C° 1 mm 1 m/s 762 mmHg 60%
    14:00 +20°C° 1 mm 2 m/s 762 mmHg 62%
    15:00 +19°C° 1 mm 2 m/s 761 mmHg 64%
    16:00 +19°C° 0.2 mm 3 m/s 761 mmHg 67%
    17:00 +18°C° 0.2 mm 3 m/s 761 mmHg 69%
    18:00 +18°C° 0.2 mm 3 m/s 761 mmHg 71%
    19:00 +16°C° 0 mm 2 m/s 761 mmHg 74%
    20:00 +14°C° 0 mm 2 m/s 762 mmHg 78%
    21:00 +13°C° 0 mm 1 m/s 762 mmHg 81%
    22:00 +13°C° 0 mm 1 m/s 762 mmHg 82%
    23:00 +13°C° 0 mm 2 m/s 761 mmHg 83%

    Amanhã, 26 Maio, Domingo

    Tempo Temperatura Precipitação Vento Pressão Humidade
    00:00 +13°C° 0 mm 2 m/s 761 mmHg 85%
    01:00 +12°C° 0 mm 2 m/s 761 mmHg 88%
    02:00 +12°C° 0 mm 2 m/s 761 mmHg 91%
    03:00 +11°C° 0 mm 3 m/s 761 mmHg 95%
    04:00 +12°C° 0 mm 3 m/s 760 mmHg 93%
    05:00 +13°C° 0 mm 3 m/s 760 mmHg 91%
    06:00 +14°C° 0 mm 4 m/s 760 mmHg 88%
    07:00 +15°C° 0 mm 4 m/s 760 mmHg 83%
    08:00 +18°C° 0 mm 4 m/s 760 mmHg 77%
    09:00 +20°C° 0 mm 5 m/s 760 mmHg 72%
    10:00 +20°C° 0.1 mm 5 m/s 760 mmHg 72%
    11:00 +20°C° 0.1 mm 5 m/s 760 mmHg 72%
    12:00 +20°C° 0.1 mm 5 m/s 759 mmHg 72%
    13:00 +21°C° 0.1 mm 5 m/s 759 mmHg 70%
    14:00 +21°C° 0.1 mm 6 m/s 759 mmHg 69%
    15:00 +21°C° 0.1 mm 6 m/s 758 mmHg 67%
    16:00 +21°C° 0 mm 6 m/s 758 mmHg 70%
    17:00 +20°C° 0 mm 6 m/s 758 mmHg 74%
    18:00 +19°C° 0 mm 6 m/s 758 mmHg 77%
    19:00 +17°C° 0 mm 5 m/s 758 mmHg 82%
    20:00 +16°C° 0 mm 5 m/s 758 mmHg 86%
    21:00 +15°C° 0 mm 5 m/s 758 mmHg 91%
    22:00 +15°C° 0.2 mm 5 m/s 758 mmHg 91%
    23:00 +15°C° 0.2 mm 5 m/s 758 mmHg 91%

    Depois de amanhã, 27 Maio, Segunda-feira

    Tempo Temperatura Precipitação Vento Pressão Humidade
    00:00 +15°C° 0.2 mm 4 m/s 757 mmHg 91%
    01:00 +14°C° 0 mm 4 m/s 757 mmHg 88%
    02:00 +13°C° 0 mm 3 m/s 757 mmHg 86%
    03:00 +13°C° 0 mm 3 m/s 757 mmHg 83%
    04:00 +13°C° 0 mm 3 m/s 757 mmHg 81%
    05:00 +13°C° 0 mm 3 m/s 757 mmHg 80%
    06:00 +13°C° 0 mm 3 m/s 757 mmHg 78%
    07:00 +14°C° 0 mm 4 m/s 758 mmHg 72%
    08:00 +15°C° 0 mm 4 m/s 758 mmHg 66%
    09:00 +17°C° 0 mm 4 m/s 758 mmHg 60%
    10:00 +16°C° 0 mm 5 m/s 758 mmHg 60%
    11:00 +16°C° 0 mm 5 m/s 758 mmHg 60%
    12:00 +16°C° 0 mm 5 m/s 758 mmHg 60%
    13:00 +16°C° 0.1 mm 5 m/s 757 mmHg 59%
    14:00 +17°C° 0.1 mm 6 m/s 757 mmHg 59%
    15:00 +17°C° 0.1 mm 6 m/s 757 mmHg 58%
    16:00 +16°C° 0.1 mm 5 m/s 757 mmHg 62%
    17:00 +15°C° 0.1 mm 5 m/s 757 mmHg 66%
    18:00 +14°C° 0.1 mm 4 m/s 757 mmHg 70%
    19:00 +14°C° 0.1 mm 4 m/s 757 mmHg 73%
    20:00 +13°C° 0.1 mm 4 m/s 757 mmHg 76%
    21:00 +12°C° 0.1 mm 4 m/s 757 mmHg 78%
    22:00 +12°C° 0 mm 3 m/s 757 mmHg 81%
    23:00 +12°C° 0 mm 3 m/s 757 mmHg 83%

    28 Maio, Terça-feira

    Tempo Temperatura Precipitação Vento Pressão Humidade
    00:00 +11°C° 0 mm 3 m/s 757 mmHg 85%
    01:00 +10°C° 0 mm 3 m/s 757 mmHg 86%
    02:00 +10°C° 0 mm 3 m/s 757 mmHg 87%
    03:00 +9°C° 0 mm 3 m/s 757 mmHg 88%
    04:00 +9°C° 0 mm 3 m/s 757 mmHg 84%
    05:00 +10°C° 0 mm 3 m/s 758 mmHg 79%
    06:00 +10°C° 0 mm 3 m/s 758 mmHg 74%
    07:00 +11°C° 0.1 mm 4 m/s 759 mmHg 70%
    08:00 +12°C° 0.1 mm 4 m/s 759 mmHg 66%
    09:00 +13°C° 0.1 mm 5 m/s 760 mmHg 62%
    10:00 +13°C° 0.1 mm 5 m/s 760 mmHg 58%
    11:00 +13°C° 0.1 mm 5 m/s 761 mmHg 55%
    12:00 +14°C° 0.1 mm 6 m/s 761 mmHg 51%
    13:00 +14°C° 0 mm 6 m/s 761 mmHg 51%
    14:00 +14°C° 0 mm 6 m/s 761 mmHg 51%
    15:00 +14°C° 0 mm 6 m/s 762 mmHg 51%
    16:00 +13°C° 0 mm 5 m/s 762 mmHg 54%
    17:00 +12°C° 0 mm 5 m/s 762 mmHg 57%
    18:00 +12°C° 0 mm 4 m/s 763 mmHg 61%
    19:00 +10°C° 0 mm 4 m/s 763 mmHg 65%
    20:00 +9°C° 0 mm 3 m/s 764 mmHg 69%
    21:00 +8°C° 0 mm 2 m/s 764 mmHg 74%
    22:00 +7°C° 0 mm 2 m/s 765 mmHg 76%
    23:00 +7°C° 0 mm 2 m/s 765 mmHg 78%

    29 Maio, Quarta-feira

    Tempo Temperatura Precipitação Vento Pressão Humidade
    00:00 +8°C° 0 mm 1 m/s 765 mmHg 80%
    01:00 +8°C° 0 mm 1 m/s 765 mmHg 80%
    02:00 +7°C° 0 mm 1 m/s 765 mmHg 81%
    03:00 +7°C° 0 mm 1 m/s 765 mmHg 81%
    04:00 +8°C° 0 mm 1 m/s 765 mmHg 78%
    05:00 +9°C° 0 mm 1 m/s 765 mmHg 75%
    06:00 +11°C° 0 mm 1 m/s 766 mmHg 72%
    07:00 +12°C° 0 mm 2 m/s 766 mmHg 67%
    08:00 +14°C° 0 mm 2 m/s 766 mmHg 62%
    09:00 +14°C° 0 mm 3 m/s 766 mmHg 58%
    10:00 +16°C° 0.2 mm 3 m/s 766 mmHg 58%
    11:00 +15°C° 0.2 mm 4 m/s 766 mmHg 59%
    12:00 +15°C° 0.2 mm 4 m/s 766 mmHg 59%
    13:00 +15°C° 0 mm 4 m/s 766 mmHg 55%
    14:00 +17°C° 0 mm 4 m/s 766 mmHg 51%
    15:00 +17°C° 0 mm 4 m/s 766 mmHg 47%
    16:00 +15°C° 0 mm 4 m/s 766 mmHg 51%
    17:00 +14°C° 0 mm 3 m/s 766 mmHg 54%
    18:00 +15°C° 0 mm 2 m/s 766 mmHg 58%
    19:00 +14°C° 0 mm 2 m/s 766 mmHg 62%
    20:00 +12°C° 0 mm 2 m/s 766 mmHg 66%
    21:00 +10°C° 0 mm 2 m/s 767 mmHg 70%
    22:00 +9°C° 0 mm 2 m/s 766 mmHg 72%
    23:00 +9°C° 0 mm 3 m/s 766 mmHg 74%

    30 Maio, Quinta-feira

    Tempo Temperatura Precipitação Vento Pressão Humidade
    00:00 +8°C° 0 mm 4 m/s 766 mmHg 76%
    01:00 +8°C° 0 mm 4 m/s 765 mmHg 76%
    02:00 +8°C° 0 mm 5 m/s 765 mmHg 77%
    03:00 +8°C° 0 mm 5 m/s 765 mmHg 77%
    04:00 +9°C° 0 mm 6 m/s 764 mmHg 78%
    05:00 +9°C° 0 mm 7 m/s 764 mmHg 78%
    06:00 +10°C° 0 mm 7 m/s 763 mmHg 79%
    07:00 +11°C° 0.1 mm 8 m/s 763 mmHg 80%
    08:00 +12°C° 0.1 mm 8 m/s 762 mmHg 80%
    09:00 +13°C° 0.1 mm 8 m/s 762 mmHg 80%
    10:00 +13°C° 0.6 mm 8 m/s 761 mmHg 83%
    11:00 +13°C° 0.6 mm 8 m/s 761 mmHg 86%
    12:00 +12°C° 0.6 mm 8 m/s 761 mmHg 89%
    13:00 +12°C° 0.5 mm 7 m/s 760 mmHg 90%
    14:00 +14°C° 0.5 mm 7 m/s 759 mmHg 90%
    15:00 +14°C° 0.5 mm 7 m/s 759 mmHg 90%
    16:00 +14°C° 0.1 mm 7 m/s 759 mmHg 90%
    17:00 +14°C° 0.1 mm 7 m/s 758 mmHg 90%
    18:00 +14°C° 0.1 mm 7 m/s 758 mmHg 90%
    19:00 +14°C° 0.3 mm 7 m/s 758 mmHg 90%
    20:00 +12°C° 0.3 mm 7 m/s 758 mmHg 91%
    21:00 +12°C° 0.3 mm 7 m/s 758 mmHg 92%
    22:00 +10°C° 1 mm 7 m/s 758 mmHg 90%
    23:00 +9°C° 1 mm 6 m/s 759 mmHg 89%
    Mostrar mais